CZ-6A DEB, 61074

Orbit data source: Space-Track

CZ-6A DEB, 61074 is space debris in LEO originally from a launch on Tue, 06 Aug 2024 UTC launched from the Taiyaun Space Center, China (TSC). Debris objects in space refer to the collection of defunct objects orbiting the Earth. Examples of debris include non-operational satellites, rocket bodies, and fragments generated from explosions, collisions, or faulty payload assembly.

Loading next visibility...
Identifier
61074, 2024-140MQ
Orbit
LEO
Country
Flag of CNCN / PRC
Related business
Manufacturer
SAST
Mission
Spacecraft
Bus & Motor
Unknown
Mass
Unknown
Launch date (UTC)
2024-08-06 (2 years ago)
Launch vehicle
Unknown
Launch site
Taiyaun Space Center, China (TSC)
Object type
Payload
Rocket body
Debris
Shape & HBR
Unknown shape, 0.1 m
Radar Cross Section
Medium (>0.1 m² and <1 m²)

Expand to show TLE details & history
Last TLE update: 13 hours ago

TLE from 13 hours ago
0 CZ-6A DEB
1 61074U 24140MQ  26171.29726341  .00001139  00000-0  22160-3 0  9998
2 61074  88.9917 268.8853 0123668 252.6958 106.0692 14.57637771 97014
Epoch: 2026-06-20T07:08Z
TLE epoch observation values (Epoch: 2026-06-20T07:08:03.558Z)
Latitude
-0.00011°
Longitude
-106.64344°
Altitude
729.151 km
Speed
7.477 km/s
True Right ascension
17h 55m 32s
True Declination
0° 00' 00"
Sunlit
Object was in full shadow at epoch
Visualization orbit readout
Latitude
Unknown
Longitude
Unknown
Altitude
Unknown
Speed
Unknown
Apparent Right ascension
Unknown
Apparent Declination
Unknown
Sunlit
N/A
Visualization observer readout
Local Sidereal Time
07:24:16
Azimuth
Unknown
Elevation
Unknown
Doppler factor
Unknown
Orbital elements
Apogee altitude
785.214 km
Perigee altitude
610.203 km
Semi-major axis
7,075.846 km
Eccentricity
0.01237
Inclination
88.9917°
RAAN
268.8853°
Arg. of periapsis
252.6958°
True anomaly
107.42503°
Mean anomaly
106.0692°
Eccentric anomaly
106.74771°
Mean motion
3.6465 °/min
Orbital period
98.72 mins
BSTAR
0.0002216
Loading maneuver chart data...
Computing Atmospheric mass density...
Loading historical data...
Loading historical data...
Loading historical data...
Loading historical data...
Loading historical data...
Loading historical data...
Loading historical data...

Documentation

Showing up to 5 results
|